カタログに戻る

BEIDOU 7

運用中ナビゲーションGEO
NORAD 37256·PAYLOAD·🇨🇳 China

打ち上げ Dec 17, 2010 から Xichang Satellite Launch Center

Loading…

TLE

最新Source: Space-Track

元期: Sep 14, 2026, 14:56 UTC

1 37256U 10068A   26257.62250972 -.00000181  00000-0  00000-0 0  9994
2 37256  47.3877 270.7098 0057279 216.3042 196.5564  1.00253744 57691

AllMySatでBEIDOU 7をリアルタイム追跡

Download on the App Store